sat.trackr.live / text

‹ back to catalog

STARLINK-30534

NORAD 57992 · 2023-153B

PAYLOAD ACTIVE UNKNOWN

§ Identity

Operator
Country
US
Launch date
2023-10-05
Launch site
AFETR
Launch vehicle
Mass (kg)
RCS (m²)

Purposes: comms

External: N2YO · Heavens-Above · Gunter

§ Orbital elements

Epoch: 2026-05-24T21:24:08.989344Z

Period
94.27 min
Inclination
43.0051°
Eccentricity
0.0001746
Mean motion
15.27570060 rev/d
Perigee alt
481.9 km
Apogee alt
484.3 km
Semi-major
6,861.2 km
B*
6.0244e-5
RAAN
356.4368°
Arg perigee
271.1485°
Mean anomaly
88.9167°
Rev number
14,645

§ Raw data

STARLINK-305341 57992U 23153B   26144.89177071  .00001395  00000+0  60244-4 0  99902 57992  43.0051 356.4368 0001746 271.1485  88.9167 15.27570060146450

JSON: /api/v1/satellites/57992 · /tle

For live sub-satellite position, see the globe view (requires WebGL).

§ Visibility from observer

Set your observer location to see the next 7 days of passes ≥ 10°. The values pass through the URL so the page stays shareable.

No JS? Fill the form by hand. The geolocation button needs JavaScript.